KUIPER-00118

导读

KUIPER-00118是美国亚马逊柯伊伯(Kuiper)低轨互联网卫星星座的第118颗卫星,于2025年8月11日发射。该星座计划部署3236颗卫星,通过多波束相控阵天线、软件定义网络技术,为全球提供高速互联网接入,卫星可灵活分配容量,支持低延迟高带宽通信,KUIPER-00118的入役将推进星座全球覆盖部署。

Basic Information
目录编号:
65154
目录名称:
KUIPER-00118
国际标识:
2025-171Y
轨道中心:
EARTH
卫星名称:
KUIPER-00118
卫星全名:
KUIPER-00118
卫星状态:
在轨 (已飞行351 天)
发射日期:
2025-08-11 UTC
国别 :
美国 (US)
星等 :
--
Orbit Information
数据来源 国际轨道数据 AOE轨道数据
星历时间 2026-07-27T21:07:02+0800
12小时前
查看轨道信息
2026-07-22T07:00:00+0800
6天前
查看轨道信息
半长轴 7007.679km 7007.608km
偏心率 0.0000508 0.000021
轨道倾角 51.899° 51.898°
近地点辐角 99.808° 59.353°
升交点赤经 277.136° 301.848°
平近点角 260.294° 30.062°
近地点 629.186km 629.323km
远地点 629.898km 629.619km
周期 97.302分钟 97.300分钟
每日圈数 14.799311 14.799535
Detailed Information
使用方式:
暂无
2D Orbit Map
3D Orbit Map
Orbit Altitude Analysis Chart
Orbit Inclination Analysis Chart
Orbit Comprehensive Analysis Chart
View Comprehensive Chart